| time (UTC) | temp F | wind direction | speed knots | gust knots | rain 1hr in | rain 24hr in | rain mn in | humidity % | barometer mb |
| 20260507061716 | 58 | 180 | 9.6 | 0.0 | 0.00 | 0.00 | 0.00 | 92 | 1016.0 |
| 20260507060716 | 60 | 180 | 9.6 | 0.0 | 0.00 | 0.00 | 0.00 | 91 | 1016.0 |
| 20260507055715 | 62 | 180 | 9.6 | 0.0 | 0.00 | 0.00 | 0.00 | 90 | 1016.0 |
| 20260507054714 | 63 | 180 | 9.6 | 0.0 | 0.00 | 0.00 | 0.00 | 90 | 1016.0 |
| 20260507053714 | 60 | 180 | 9.6 | 0.0 | 0.00 | 0.00 | 0.00 | 89 | 1016.0 |
| 20260507052713 | 61 | 180 | 9.6 | 0.0 | 0.00 | 0.00 | 0.00 | 89 | 1016.0 |
| 20260507051712 | 62 | 180 | 9.6 | 0.0 | 0.00 | 0.00 | 0.00 | 89 | 1016.0 |
| 20260507050712 | 63 | 180 | 9.6 | 0.0 | 0.00 | 0.00 | 0.00 | 89 | 1016.0 |
| 20260507045711 | 64 | 180 | 9.6 | 0.0 | 0.00 | 0.00 | 0.00 | 89 | 1016.0 |
| 20260507044710 | 60 | 180 | 9.6 | 0.0 | 0.00 | 0.00 | 0.00 | 90 | 1016.0 |
| 20260507043710 | 62 | 180 | 9.6 | 0.0 | 0.00 | 0.00 | 0.00 | 89 | 1016.0 |
| 20260507042709 | 64 | 180 | 9.6 | 0.0 | 0.00 | 0.00 | 0.00 | 88 | 1016.0 |
| 20260507041708 | 60 | 180 | 9.6 | 0.0 | 0.00 | 0.00 | 0.00 | 89 | 1016.0 |
| 20260507040707 | 62 | 180 | 9.6 | 0.0 | 0.00 | 0.00 | 0.00 | 87 | 1016.0 |
| 20260507035707 | 64 | 180 | 9.6 | 0.0 | 0.00 | 0.00 | 0.00 | 86 | 1016.0 |
| 20260507034706 | 65 | 180 | 9.6 | 0.0 | 0.00 | 0.00 | 0.00 | 86 | 1016.0 |
| 20260507033705 | 61 | 180 | 9.6 | 0.0 | 0.00 | 0.00 | 0.00 | 87 | 1016.0 |
| 20260507032705 | 62 | 180 | 9.6 | 0.0 | 0.00 | 0.00 | 0.00 | 88 | 1015.0 |
| 20260507031704 | 62 | 180 | 9.6 | 0.0 | 0.00 | 0.00 | 0.00 | 88 | 1015.0 |
| 20260507030703 | 63 | 180 | 9.6 | 0.0 | 0.00 | 0.00 | 0.00 | 89 | 1015.0 |
| 20260507025703 | 64 | 180 | 9.6 | 0.0 | 0.00 | 0.00 | 0.00 | 90 | 1015.0 |
| 20260507024702 | 65 | 180 | 9.6 | 0.0 | 0.00 | 0.00 | 0.00 | 90 | 1015.0 |
| 20260507023702 | 61 | 180 | 11.3 | 0.0 | 0.00 | 0.00 | 0.00 | 89 | 1015.0 |
| 20260507022701 | 62 | 180 | 11.3 | 0.0 | 0.00 | 0.00 | 0.00 | 89 | 1014.0 |
| 20260507021700 | 63 | 180 | 11.3 | 0.0 | 0.00 | 0.00 | 0.00 | 89 | 1014.0 |
| 20260507020700 | 64 | 180 | 11.3 | 0.0 | 0.00 | 0.00 | 0.00 | 89 | 1014.0 |
| 20260507015659 | 65 | 180 | 11.3 | 0.0 | 0.00 | 0.00 | 0.00 | 89 | 1014.0 |
| 20260507014659 | 61 | 180 | 11.3 | 0.0 | 0.00 | 0.00 | 0.00 | 90 | 1014.0 |
| 20260507013658 | 63 | 180 | 11.3 | 0.0 | 0.00 | 0.00 | 0.00 | 89 | 1014.0 |
| 20260507012657 | 65 | 180 | 11.3 | 0.0 | 0.00 | 0.00 | 0.00 | 88 | 1013.0 |
| 20260507011657 | 62 | 180 | 9.6 | 0.0 | 0.00 | 0.00 | 0.00 | 87 | 1013.0 |
| 20260507010656 | 64 | 180 | 9.6 | 0.0 | 0.00 | 0.00 | 0.00 | 85 | 1013.0 |
| 20260507005656 | 66 | 180 | 9.6 | 0.0 | 0.00 | 0.00 | 0.00 | 83 | 1013.0 |
| 20260507004655 | 66 | 180 | 9.6 | 0.0 | 0.00 | 0.00 | 0.00 | 83 | 1013.0 |
| 20260507003655 | 68 | 180 | 9.6 | 0.0 | 0.00 | 0.00 | 0.00 | 81 | 1013.0 |
| 20260507002654 | 66 | 180 | 9.6 | 0.0 | 0.00 | 0.00 | 0.00 | 80 | 1012.0 |
| 20260507001653 | 67 | 180 | 9.6 | 0.0 | 0.00 | 0.00 | 0.00 | 79 | 1012.0 |
| 20260507000653 | 68 | 180 | 9.6 | 0.0 | 0.00 | 0.00 | 0.00 | 78 | 1012.0 |
| 20260506235652 | 69 | 180 | 9.6 | 0.0 | 0.00 | 0.00 | 0.00 | 77 | 1012.0 |
| 20260506234651 | 70 | 180 | 9.6 | 0.0 | 0.00 | 0.00 | 0.00 | 73 | 1012.0 |
| 20260506233651 | 71 | 180 | 9.6 | 0.0 | 0.00 | 0.00 | 0.00 | 73 | 1012.0 |
| 20260506232650 | 72 | 180 | 9.6 | 0.0 | 0.00 | 0.00 | 0.00 | 73 | 1011.0 |
| 20260506231650 | 70 | 180 | 9.6 | 0.0 | 0.00 | 0.00 | 0.00 | 81 | 1011.0 |
| 20260506230649 | 70 | 180 | 9.6 | 0.0 | 0.00 | 0.00 | 0.00 | 81 | 1011.0 |
| 20260506225648 | 72 | 180 | 9.6 | 0.0 | 0.00 | 0.00 | 0.00 | 81 | 1011.0 |
| 20260506224648 | 72 | 180 | 9.6 | 0.0 | 0.00 | 0.00 | 0.00 | 81 | 1011.0 |
| 20260506223647 | 74 | 180 | 9.6 | 0.0 | 0.00 | 0.00 | 0.00 | 76 | 1011.0 |
| 20260506222647 | 73 | 200 | 13.0 | 0.0 | 0.00 | 0.00 | 0.00 | 76 | 1011.0 |
| 20260506221646 | 74 | 200 | 13.0 | 0.0 | 0.00 | 0.00 | 0.00 | 75 | 1011.0 |
| 20260506220646 | 75 | 200 | 13.0 | 0.0 | 0.00 | 0.00 | 0.00 | 74 | 1011.0 |
| 20260506215645 | 77 | 200 | 13.9 | 0.0 | 0.00 | 0.00 | 0.00 | 73 | 1011.0 |
| 20260506214645 | 78 | 200 | 13.9 | 0.0 | 0.00 | 0.00 | 0.00 | 72 | 1011.0 |
| 20260506213644 | 73 | 200 | 13.0 | 0.0 | 0.00 | 0.00 | 0.00 | 77 | 1011.0 |
| 20260506212643 | 74 | 200 | 13.0 | 0.0 | 0.00 | 0.00 | 0.00 | 77 | 1011.0 |
| 20260506211643 | 76 | 200 | 13.9 | 0.0 | 0.00 | 0.00 | 0.00 | 78 | 1011.0 |
| 20260506210031 | 71 | 183 | 5.2 | 6.1 | 0.00 | 0.00 | 0.00 | 10 | 1012.0 |
| 20260506205031 | 71 | 183 | 4.3 | 6.1 | 0.00 | 0.00 | 0.00 | 10 | 1012.0 |
| 20260506204030 | 73 | 183 | 4.3 | 6.1 | 0.00 | 0.00 | 0.00 | 10 | 1012.0 |
| 20260506203029 | 74 | 183 | 5.2 | 6.1 | 0.00 | 0.00 | 0.00 | 10 | 1012.0 |
| 20260506202019 | 74 | 147 | 4.3 | 5.2 | 0.00 | 0.00 | 0.00 | 84 | 1012.0 |
| 20260506201019 | 74 | 180 | 9.6 | 0.0 | 0.00 | 0.00 | 0.00 | 71 | 1012.0 |
| 20260506200018 | 74 | 180 | 9.6 | 0.0 | 0.00 | 0.00 | 0.00 | 71 | 1012.0 |
| 20260506195018 | 76 | 180 | 9.6 | 0.0 | 0.00 | 0.00 | 0.00 | 66 | 1012.0 |
| 20260506194017 | 76 | 180 | 9.6 | 0.0 | 0.00 | 0.00 | 0.00 | 66 | 1012.0 |
| 20260506193016 | 78 | 180 | 9.6 | 0.0 | 0.00 | 0.00 | 0.00 | 64 | 1012.0 |
| 20260506192016 | 79 | 180 | 9.6 | 0.0 | 0.00 | 0.00 | 0.00 | 66 | 1012.0 |
| 20260506191015 | 80 | 180 | 9.6 | 0.0 | 0.00 | 0.00 | 0.00 | 69 | 1012.0 |
| 20260506190015 | 74 | 123 | 2.6 | 5.2 | 0.00 | 0.00 | 0.00 | 77 | 1012.0 |
| 20260506185014 | 76 | 180 | 9.6 | 0.0 | 0.00 | 0.00 | 0.00 | 55 | 1012.0 |
| 20260506184013 | 78 | 180 | 9.6 | 0.0 | 0.00 | 0.00 | 0.00 | 52 | 1012.0 |
| 20260506183013 | 80 | 180 | 9.6 | 0.0 | 0.00 | 0.00 | 0.00 | 48 | 1012.0 |
| 20260506182012 | 81 | 180 | 9.6 | 0.0 | 0.00 | 0.00 | 0.00 | 48 | 1013.0 |
| 20260506181012 | 77 | 180 | 9.6 | 0.0 | 0.00 | 0.00 | 0.00 | 47 | 1013.0 |
| 20260506180011 | 79 | 360 | 3.5 | 0.0 | 0.00 | 0.00 | 0.00 | 47 | 1013.0 |
| 20260506175010 | 77 | 360 | 3.5 | 0.0 | 0.00 | 0.00 | 0.00 | 47 | 1013.0 |
| 20260506172923 | 79 | 360 | 3.5 | 0.0 | 0.00 | 0.00 | 0.00 | 47 | 1014.0 |
| 20260506171922 | 77 | 360 | 3.5 | 0.0 | 0.00 | 0.00 | 0.00 | 47 | 1014.0 |
| 20260506170921 | 79 | 360 | 3.5 | 0.0 | 0.00 | 0.00 | 0.00 | 47 | 1014.0 |
| 20260506165921 | 75 | 190 | 7.8 | 0.0 | 0.00 | 0.00 | 0.00 | 57 | 1014.0 |
| 20260506164920 | 75 | 190 | 7.8 | 0.0 | 0.00 | 0.00 | 0.00 | 57 | 1014.0 |
| 20260506163920 | 74 | 190 | 7.8 | 0.0 | 0.00 | 0.00 | 0.00 | 57 | 1015.0 |
| 20260506162919 | 74 | 190 | 7.8 | 0.0 | 0.00 | 0.00 | 0.00 | 57 | 1015.0 |
| 20260506161956 | 73 | 190 | 7.8 | 0.0 | 0.00 | 0.00 | 0.00 | 57 | 1015.0 |
| 20260506160955 | 75 | 190 | 7.8 | 0.0 | 0.00 | 0.00 | 0.00 | 57 | 1015.0 |
| 20260506155954 | 72 | 0 | 0.0 | 0.0 | 0.00 | 0.00 | 0.00 | 69 | 1015.0 |
| 20260506154954 | 72 | 0 | 0.0 | 0.0 | 0.00 | 0.00 | 0.00 | 69 | 1015.0 |
| 20260506153953 | 72 | 0 | 0.0 | 0.0 | 0.00 | 0.00 | 0.00 | 69 | 1015.0 |
| 20260506152952 | 71 | 0 | 0.0 | 0.0 | 0.00 | 0.00 | 0.00 | 76 | 1015.0 |
| 20260506151952 | 70 | 0 | 0.0 | 0.0 | 0.00 | 0.00 | 0.00 | 70 | 1015.0 |
| 20260506150951 | 72 | 0 | 0.0 | 0.0 | 0.00 | 0.00 | 0.00 | 69 | 1015.0 |
| 20260506145951 | 68 | 0 | 0.0 | 0.0 | 0.00 | 0.00 | 0.00 | 78 | 1015.0 |
| 20260506144950 | 68 | 0 | 0.0 | 0.0 | 0.00 | 0.00 | 0.00 | 78 | 1015.0 |
| 20260506143950 | 67 | 0 | 0.0 | 0.0 | 0.00 | 0.00 | 0.00 | 78 | 1015.0 |
| 20260506142949 | 67 | 0 | 0.0 | 0.0 | 0.00 | 0.00 | 0.00 | 78 | 1015.0 |
| 20260506141949 | 68 | 0 | 0.0 | 0.0 | 0.00 | 0.00 | 0.00 | 78 | 1015.0 |
| 20260506140948 | 68 | 0 | 0.0 | 0.0 | 0.00 | 0.00 | 0.00 | 78 | 1015.0 |
| 20260506135947 | 65 | 0 | 0.0 | 0.0 | 0.00 | 0.00 | 0.00 | 88 | 1015.0 |
| 20260506134947 | 65 | 0 | 0.0 | 0.0 | 0.00 | 0.00 | 0.00 | 88 | 1015.0 |
| 20260506133946 | 61 | 0 | 0.0 | 0.0 | 0.00 | 0.00 | 0.00 | 90 | 1015.0 |
| 20260506132945 | 63 | 0 | 0.0 | 0.0 | 0.00 | 0.00 | 0.00 | 90 | 1015.0 |
| 20260506131945 | 64 | 0 | 0.0 | 0.0 | 0.00 | 0.00 | 0.00 | 90 | 1015.0 |
| 20260506130944 | 62 | 20 | 3.5 | 0.0 | 0.00 | 0.00 | 0.00 | 95 | 1015.0 |
| 20260506125944 | 62 | 20 | 3.5 | 0.0 | 0.00 | 0.00 | 0.00 | 95 | 1015.0 |
| 20260506124943 | 62 | 20 | 3.5 | 0.0 | 0.00 | 0.00 | 0.00 | 95 | 1015.0 |
| 20260506123943 | 58 | 20 | 4.3 | 0.0 | 0.00 | 0.00 | 0.00 | 94 | 1015.0 |
| 20260506122942 | 58 | 20 | 4.3 | 0.0 | 0.00 | 0.00 | 0.00 | 94 | 1015.0 |
| 20260506121942 | 59 | 20 | 4.3 | 0.0 | 0.00 | 0.00 | 0.00 | 94 | 1015.0 |
| 20260506120941 | 60 | 20 | 4.3 | 0.0 | 0.00 | 0.00 | 0.00 | 93 | 1015.0 |
| 20260506115941 | 61 | 20 | 5.2 | 0.0 | 0.00 | 0.00 | 0.00 | 92 | 1015.0 |
| 20260506114940 | 55 | 20 | 4.3 | 0.0 | 0.00 | 0.00 | 0.00 | 95 | 1015.0 |
| 20260506113939 | 57 | 20 | 4.3 | 0.0 | 0.00 | 0.00 | 0.00 | 94 | 1015.0 |
| 20260506112939 | 58 | 20 | 4.3 | 0.0 | 0.00 | 0.00 | 0.00 | 93 | 1015.0 |
| 20260506111938 | 60 | 20 | 4.3 | 0.0 | 0.00 | 0.00 | 0.00 | 92 | 1015.0 |
| 20260506110938 | 61 | 20 | 5.2 | 0.0 | 0.00 | 0.00 | 0.00 | 92 | 1016.0 |
| 20260506105937 | 56 | 360 | 4.3 | 0.0 | 0.00 | 0.00 | 0.00 | 93 | 1016.0 |
| 20260506104937 | 58 | 360 | 4.3 | 0.0 | 0.00 | 0.00 | 0.00 | 92 | 1016.0 |
| 20260506103936 | 58 | 360 | 4.3 | 0.0 | 0.00 | 0.00 | 0.00 | 92 | 1016.0 |
| 20260506102935 | 60 | 360 | 4.3 | 0.0 | 0.00 | 0.00 | 0.00 | 91 | 1014.0 |
| 20260506101935 | 62 | 360 | 5.2 | 0.0 | 0.00 | 0.00 | 0.00 | 90 | 1014.0 |
| 20260506100934 | 62 | 360 | 5.2 | 0.0 | 0.00 | 0.00 | 0.00 | 90 | 1014.0 |
| 20260506095934 | 63 | 360 | 3.5 | 0.0 | 0.00 | 0.00 | 0.00 | 90 | 1015.0 |
| 20260506094933 | 60 | 360 | 3.5 | 0.0 | 0.00 | 0.00 | 0.00 | 90 | 1015.0 |
| 20260506093933 | 62 | 360 | 3.5 | 0.0 | 0.00 | 0.00 | 0.00 | 89 | 1015.0 |
| 20260506092932 | 63 | 360 | 3.5 | 0.0 | 0.00 | 0.00 | 0.00 | 88 | 1014.0 |
| 20260506091931 | 65 | 360 | 3.5 | 0.0 | 0.00 | 0.00 | 0.00 | 88 | 1014.0 |
| 20260506090931 | 56 | 297 | 0.9 | 0.9 | 0.00 | 0.00 | 0.00 | 98 | 1015.0 |
| 20260506085930 | 58 | 297 | 0.9 | 0.9 | 0.00 | 0.00 | 0.00 | 98 | 1015.0 |
| 20260506084930 | 60 | 297 | 0.9 | 0.9 | 0.00 | 0.00 | 0.00 | 97 | 1015.0 |
| 20260506083929 | 62 | 297 | 0.9 | 1.7 | 0.00 | 0.00 | 0.00 | 96 | 1015.0 |
| 20260506082928 | 58 | 288 | 0.9 | 0.9 | 0.00 | 0.00 | 0.00 | 96 | 1015.0 |
| 20260506081928 | 60 | 288 | 0.9 | 0.9 | 0.00 | 0.00 | 0.00 | 95 | 1015.0 |
| 20260506080927 | 62 | 288 | 0.9 | 0.9 | 0.00 | 0.00 | 0.00 | 95 | 1015.0 |
| 20260506072844 | 62 | 0 | 0.0 | 0.0 | 0.00 | 0.00 | 0.00 | 94 | 1014.0 |
| 20260506071843 | 63 | 0 | 0.0 | 0.0 | 0.00 | 0.00 | 0.00 | 92 | 1014.0 |
| 20260506070843 | 60 | 0 | 0.0 | 0.0 | 0.00 | 0.00 | 0.00 | 80 | 1014.0 |